• In Deutschland
  • Länderverzeichnis
  • Für 7 Tage
  • Wassertemperatur
  • Satellitenkarten
  • Wetterkarte
  • Widgets
  • user-avatar
    Anmelden

    Stündliche Wetter Quickborn

    Heute, 18 Februar, Sonntag

    Zeit Temperatur Niederschläge Wind Luftdruck Luftfeuchtigkeit
    00:00 0°C° 0 mm 1 m/S 768 mmHg 92%
    01:00 0°C° 0 mm 1 m/S 768 mmHg 92%
    02:00 0°C° 0 mm 1 m/S 768 mmHg 92%
    03:00 0°C° 0 mm 1 m/S 768 mmHg 92%
    04:00 0°C° 0 mm 1 m/S 768 mmHg 92%
    05:00 -2°C° 0 mm 2 m/S 768 mmHg 93%
    06:00 -2°C° 0 mm 2 m/S 768 mmHg 93%
    07:00 -3°C° 0 mm 2 m/S 768 mmHg 94%
    08:00 -2°C° 0 mm 2 m/S 768 mmHg 90%
    09:00 -1°C° 0 mm 2 m/S 769 mmHg 86%
    10:00 0°C° 0 mm 3 m/S 769 mmHg 82%
    11:00 +2°C° 0 mm 3 m/S 769 mmHg 77%
    12:00 +3°C° 0 mm 3 m/S 768 mmHg 72%
    13:00 +4°C° 0 mm 3 m/S 768 mmHg 66%
    14:00 +3°C° 0 mm 3 m/S 768 mmHg 68%
    15:00 +4°C° 0 mm 2 m/S 768 mmHg 69%
    16:00 +4°C° 0 mm 2 m/S 767 mmHg 70%
    17:00 +3°C° 0 mm 2 m/S 767 mmHg 74%
    18:00 +2°C° 0 mm 2 m/S 767 mmHg 78%
    19:00 +1°C° 0 mm 2 m/S 767 mmHg 81%
    20:00 -1°C° 0 mm 2 m/S 767 mmHg 83%
    21:00 -1°C° 0 mm 2 m/S 767 mmHg 84%
    22:00 -1°C° 0 mm 2 m/S 767 mmHg 85%
    23:00 -1°C° 0 mm 2 m/S 766 mmHg 85%

    Morgen, 19 Februar, Montag

    Zeit Temperatur Niederschläge Wind Luftdruck Luftfeuchtigkeit
    00:00 -2°C° 0 mm 2 m/S 766 mmHg 86%
    01:00 -2°C° 0 mm 2 m/S 766 mmHg 86%
    02:00 -2°C° 0 mm 2 m/S 766 mmHg 86%
    03:00 -2°C° 0 mm 2 m/S 765 mmHg 85%
    04:00 -2°C° 0 mm 2 m/S 765 mmHg 85%
    05:00 -2°C° 0 mm 2 m/S 765 mmHg 85%
    06:00 -2°C° 0 mm 2 m/S 764 mmHg 85%
    07:00 -2°C° 0 mm 2 m/S 764 mmHg 85%
    08:00 -1°C° 0 mm 2 m/S 764 mmHg 81%
    09:00 +1°C° 0 mm 2 m/S 764 mmHg 77%
    10:00 +2°C° 0 mm 2 m/S 764 mmHg 74%
    11:00 +3°C° 0 mm 2 m/S 764 mmHg 70%
    12:00 +4°C° 0 mm 2 m/S 764 mmHg 67%
    13:00 +5°C° 0 mm 2 m/S 763 mmHg 63%
    14:00 +5°C° 0 mm 2 m/S 763 mmHg 66%
    15:00 +6°C° 0 mm 1 m/S 763 mmHg 68%
    16:00 +6°C° 0 mm 1 m/S 762 mmHg 71%
    17:00 +5°C° 0,1 mm 1 m/S 762 mmHg 75%
    18:00 +4°C° 0,1 mm 1 m/S 762 mmHg 78%
    19:00 +3°C° 0,1 mm 1 m/S 762 mmHg 82%
    20:00 +3°C° 0,2 mm 1 m/S 762 mmHg 83%
    21:00 +3°C° 0,2 mm 1 m/S 762 mmHg 84%
    22:00 +2°C° 0,2 mm 1 m/S 761 mmHg 85%
    23:00 +1°C° 0,2 mm 2 m/S 761 mmHg 86%

    übermorgen, 20 Februar, Dienstag

    Zeit Temperatur Niederschläge Wind Luftdruck Luftfeuchtigkeit
    00:00 +1°C° 0,2 mm 2 m/S 761 mmHg 86%
    01:00 +1°C° 0,2 mm 2 m/S 761 mmHg 86%
    02:00 +1°C° 0 mm 2 m/S 761 mmHg 86%
    03:00 -1°C° 0 mm 2 m/S 761 mmHg 87%
    04:00 -1°C° 0 mm 2 m/S 761 mmHg 87%
    05:00 -1°C° 0 mm 2 m/S 761 mmHg 88%
    06:00 -1°C° 0 mm 3 m/S 761 mmHg 89%
    07:00 -2°C° 0 mm 3 m/S 761 mmHg 90%
    08:00 -1°C° 0 mm 3 m/S 761 mmHg 87%
    09:00 0°C° 0 mm 3 m/S 762 mmHg 83%
    10:00 0°C° 0 mm 4 m/S 762 mmHg 80%
    11:00 +1°C° 0 mm 4 m/S 762 mmHg 76%
    12:00 +1°C° 0 mm 4 m/S 762 mmHg 71%
    13:00 +3°C° 0 mm 4 m/S 763 mmHg 67%
    14:00 +3°C° 0 mm 4 m/S 763 mmHg 68%
    15:00 +3°C° 0 mm 4 m/S 763 mmHg 69%
    16:00 +1°C° 0 mm 4 m/S 763 mmHg 70%
    17:00 0°C° 0 mm 4 m/S 764 mmHg 74%
    18:00 -1°C° 0 mm 4 m/S 764 mmHg 79%
    19:00 -2°C° 0 mm 4 m/S 764 mmHg 84%
    20:00 -3°C° 0 mm 4 m/S 765 mmHg 86%
    21:00 -2°C° 0 mm 3 m/S 765 mmHg 87%
    22:00 -2°C° 0 mm 3 m/S 766 mmHg 89%
    23:00 -2°C° 0 mm 3 m/S 766 mmHg 90%

    21 Februar, Mittwoch

    Zeit Temperatur Niederschläge Wind Luftdruck Luftfeuchtigkeit
    00:00 -2°C° 0 mm 3 m/S 766 mmHg 91%
    01:00 -4°C° 0 mm 3 m/S 766 mmHg 92%
    02:00 -4°C° 0 mm 3 m/S 766 mmHg 91%
    03:00 -4°C° 0 mm 3 m/S 766 mmHg 90%
    04:00 -4°C° 0 mm 3 m/S 766 mmHg 89%
    05:00 -4°C° 0 mm 3 m/S 767 mmHg 88%
    06:00 -4°C° 0 mm 3 m/S 767 mmHg 87%
    07:00 -4°C° 0 mm 3 m/S 767 mmHg 85%
    08:00 -2°C° 0 mm 3 m/S 767 mmHg 80%
    09:00 -2°C° 0 mm 3 m/S 767 mmHg 75%
    10:00 -1°C° 0 mm 3 m/S 767 mmHg 71%
    11:00 -1°C° 0 mm 3 m/S 767 mmHg 68%
    12:00 0°C° 0 mm 3 m/S 767 mmHg 66%
    13:00 0°C° 0 mm 3 m/S 767 mmHg 63%
    14:00 0°C° 0 mm 3 m/S 767 mmHg 63%
    15:00 0°C° 0 mm 3 m/S 767 mmHg 63%
    16:00 0°C° 0 mm 3 m/S 767 mmHg 63%
    17:00 -1°C° 0 mm 3 m/S 767 mmHg 68%
    18:00 -2°C° 0 mm 2 m/S 767 mmHg 73%
    19:00 -3°C° 0 mm 2 m/S 767 mmHg 78%
    20:00 -3°C° 0 mm 2 m/S 768 mmHg 78%
    21:00 -1°C° 0 mm 1 m/S 768 mmHg 79%
    22:00 -1°C° 0 mm 1 m/S 768 mmHg 80%
    23:00 -1°C° 0 mm 1 m/S 768 mmHg 80%

    22 Februar, Donnerstag

    Zeit Temperatur Niederschläge Wind Luftdruck Luftfeuchtigkeit
    00:00 -1°C° 0 mm 1 m/S 768 mmHg 80%
    01:00 -1°C° 0 mm 1 m/S 768 mmHg 80%
    02:00 -1°C° 0 mm 1 m/S 768 mmHg 80%
    03:00 -1°C° 0 mm 1 m/S 768 mmHg 80%
    04:00 -1°C° 0 mm 1 m/S 768 mmHg 80%
    05:00 -1°C° 0 mm 1 m/S 768 mmHg 80%
    06:00 -2°C° 0 mm 1 m/S 768 mmHg 81%
    07:00 -2°C° 0 mm 1 m/S 768 mmHg 81%
    08:00 -1°C° 0 mm 1 m/S 768 mmHg 76%
    09:00 -2°C° 0 mm 2 m/S 768 mmHg 70%
    10:00 -2°C° 0 mm 2 m/S 768 mmHg 65%
    11:00 -1°C° 0 mm 2 m/S 768 mmHg 61%
    12:00 -1°C° 0 mm 3 m/S 767 mmHg 58%
    13:00 0°C° 0 mm 3 m/S 767 mmHg 55%
    14:00 0°C° 0 mm 3 m/S 767 mmHg 56%
    15:00 0°C° 0 mm 3 m/S 767 mmHg 57%
    16:00 0°C° 0 mm 3 m/S 766 mmHg 59%
    17:00 -1°C° 0 mm 3 m/S 766 mmHg 63%
    18:00 -2°C° 0 mm 2 m/S 766 mmHg 68%
    19:00 -2°C° 0 mm 2 m/S 767 mmHg 73%
    20:00 -2°C° 0 mm 2 m/S 767 mmHg 75%
    21:00 -2°C° 0 mm 2 m/S 767 mmHg 76%
    22:00 -2°C° 0 mm 2 m/S 767 mmHg 78%
    23:00 0°C° 0 mm 1 m/S 767 mmHg 78%

    23 Februar, Freitag

    Zeit Temperatur Niederschläge Wind Luftdruck Luftfeuchtigkeit
    00:00 0°C° 0 mm 1 m/S 767 mmHg 79%
    01:00 -1°C° 0 mm 1 m/S 767 mmHg 79%
    02:00 -1°C° 0 mm 1 m/S 767 mmHg 78%
    03:00 -1°C° 0 mm 1 m/S 766 mmHg 78%
    04:00 -1°C° 0 mm 1 m/S 766 mmHg 77%
    05:00 -1°C° 0 mm 1 m/S 766 mmHg 78%
    06:00 -1°C° 0 mm 1 m/S 767 mmHg 78%
    07:00 -1°C° 0 mm 1 m/S 767 mmHg 78%
    08:00 -2°C° 0 mm 2 m/S 767 mmHg 72%
    09:00 -2°C° 0 mm 2 m/S 767 mmHg 66%
    10:00 -1°C° 0 mm 3 m/S 768 mmHg 59%
    11:00 -1°C° 0 mm 3 m/S 768 mmHg 58%
    12:00 -1°C° 0 mm 3 m/S 768 mmHg 56%
    13:00 -1°C° 0 mm 4 m/S 768 mmHg 54%
    14:00 -2°C° 0 mm 4 m/S 768 mmHg 55%
    15:00 -2°C° 0 mm 4 m/S 768 mmHg 56%
    16:00 -3°C° 0 mm 4 m/S 768 mmHg 57%
    17:00 -3°C° 0 mm 4 m/S 768 mmHg 60%
    18:00 -4°C° 0 mm 4 m/S 769 mmHg 62%
    19:00 -5°C° 0 mm 3 m/S 769 mmHg 65%
    20:00 -6°C° 0 mm 3 m/S 769 mmHg 63%
    21:00 -6°C° 0 mm 3 m/S 770 mmHg 62%
    22:00 -6°C° 0 mm 3 m/S 770 mmHg 61%
    23:00 -5°C° 0 mm 2 m/S 770 mmHg 60%
    Mehr zeigen